Location: Pasadena, ca
(34.1243°N, 118.1037°W)
Time: 14:59:23
(UTC-08:00)

Tiangong 2 - Pass Details

Date: 14 November 2017
Orbit: 386 x 391 km, 42.8° (Epoch: 17 November)

Event Time Altitude Azimuth Distance (km) Brightness Sun altitude
Rises 18:02:17 0° 287° (WNW) 2,271 6.1 -15.3°
Reaches altitude 10° 18:04:40 10° 270° (W) 1,412 5.2 -15.8°
Maximum altitude 18:07:10 21° 218° (SW) 920 3.6 -16.3°
Drops below altitude 10° 18:09:40 10° 166° (SSE) 1,404 3.9 -16.8°
Enters shadow 18:10:41 - 157° (SSE) 1,755 4.3 -17.0°
